AVZ1453 SVMT-SVBM

Flight info

Callsign AVZ1453
Flight time 1h 6m
Altitude 38000
Route ESMEN UG443 BNA UW14 ILNOL DCT VASOT
Aircraft B736/M-SDE2E3FGHIRWXY/LB1

Departure

Time 2026-04-22 18:40
Airport José Tadeo Monagas International Airport (SVMT)

Arrival

Time 2026-04-22 19:46
Airport Jacinto Lara International Airport (SVBM)
Time Latitude Longitude Altitude Speed Heading
2026-04-22 18:31 9.74826 -63.15662 224 ft 0 kts 311°
2026-04-22 18:36 9.74829 -63.15662 224 ft 1 kts 12°
2026-04-22 18:37 9.74827 -63.15639 223 ft 9 kts 98°
2026-04-22 18:37 9.74808 -63.15575 221 ft 0 kts 154°
2026-04-22 18:37 9.74782 -63.15553 220 ft 11 kts 139°
2026-04-22 18:38 9.74687 -63.15599 220 ft 22 kts 227°
2026-04-22 18:38 9.74578 -63.15717 223 ft 21 kts 227°
2026-04-22 18:38 9.74480 -63.15826 224 ft 20 kts 231°
2026-04-22 18:39 9.74321 -63.16018 224 ft 4 kts 53°
2026-04-22 18:39 9.74324 -63.16017 224 ft 0 kts 25°
2026-04-22 18:39 9.74344 -63.15997 224 ft 13 kts 48°
2026-04-22 18:39 9.74624 -63.15670 221 ft 104 kts 48°
2026-04-22 18:40 9.75288 -63.14915 286 ft 170 kts 49°
2026-04-22 18:40 9.76085 -63.13951 896 ft 186 kts 51°
2026-04-22 18:40 9.76884 -63.12853 1597 ft 196 kts 55°
2026-04-22 18:40 9.77617 -63.11733 2560 ft 199 kts 53°
2026-04-22 18:41 9.78610 -63.10719 3439 ft 207 kts 33°
2026-04-22 18:41 9.79995 -63.10357 4369 ft 212 kts 356°
2026-04-22 18:41 9.81356 -63.10737 5396 ft 186 kts 339°
2026-04-22 18:41 9.82407 -63.11479 5463 ft 203 kts 305°
2026-04-22 18:42 9.82891 -63.12828 6489 ft 206 kts 280°
2026-04-22 18:42 9.82963 -63.14219 7564 ft 200 kts 270°
2026-04-22 18:42 9.82881 -63.15681 8247 ft 214 kts 268°
2026-04-22 18:42 9.82784 -63.17207 9042 ft 220 kts 268°
2026-04-22 18:43 9.82706 -63.18730 10007 ft 217 kts 269°
2026-04-22 18:43 9.82637 -63.20272 10881 ft 218 kts 269°
2026-04-22 18:43 9.82568 -63.21812 11669 ft 221 kts 268°
2026-04-22 18:43 9.82495 -63.23360 12463 ft 224 kts 268°
2026-04-22 18:44 9.82418 -63.25019 13040 ft 237 kts 268°
2026-04-22 18:44 9.82340 -63.26737 13597 ft 252 kts 268°
2026-04-22 18:44 9.82257 -63.28566 14173 ft 266 kts 268°
2026-04-22 18:44 9.82169 -63.30494 14747 ft 280 kts 268°
2026-04-22 18:45 9.82075 -63.32542 15274 ft 296 kts 268°
2026-04-22 18:45 9.81975 -63.34717 15847 ft 310 kts 268°
2026-04-22 18:45 9.81872 -63.36926 16444 ft 321 kts 268°
2026-04-22 18:45 9.81765 -63.39207 17260 ft 323 kts 268°
2026-04-22 18:46 9.81658 -63.41500 18037 ft 327 kts 268°
2026-04-22 18:46 9.81624 -63.43832 18684 ft 335 kts 272°
2026-04-22 18:46 9.81841 -63.46230 19433 ft 338 kts 279°
2026-04-22 18:46 9.82297 -63.48600 20096 ft 345 kts 283°
2026-04-22 18:47 9.82878 -63.51011 20775 ft 350 kts 284°
2026-04-22 18:47 9.83495 -63.53433 21419 ft 356 kts 285°
2026-04-22 18:47 9.84113 -63.55857 22040 ft 361 kts 285°
2026-04-22 18:47 9.84738 -63.58347 22724 ft 364 kts 284°
2026-04-22 18:48 9.85362 -63.60867 23461 ft 366 kts 284°
2026-04-22 18:48 9.85979 -63.63385 24125 ft 368 kts 284°
2026-04-22 18:48 9.86596 -63.65927 24827 ft 370 kts 283°
2026-04-22 18:48 9.87219 -63.68500 25402 ft 374 kts 283°
2026-04-22 18:49 9.87843 -63.71084 25999 ft 377 kts 283°
2026-04-22 18:49 9.88466 -63.73668 26664 ft 378 kts 283°
2026-04-22 18:49 9.89095 -63.76282 27230 ft 381 kts 283°
2026-04-22 18:49 9.89732 -63.78926 28024 ft 376 kts 283°
2026-04-22 18:50 9.90345 -63.81476 28907 ft 368 kts 283°
2026-04-22 18:50 9.90949 -63.83985 29743 ft 361 kts 282°
2026-04-22 18:50 9.91543 -63.86456 30528 ft 353 kts 282°
2026-04-22 18:50 9.92116 -63.88843 31250 ft 347 kts 281°
2026-04-22 18:51 9.92693 -63.91238 31984 ft 339 kts 281°
2026-04-22 18:51 9.93246 -63.93537 32588 ft 334 kts 281°
2026-04-22 18:51 9.93804 -63.95869 32836 ft 340 kts 281°
2026-04-22 18:51 9.94368 -63.98233 33164 ft 343 kts 280°
2026-04-22 18:52 9.94933 -64.00596 33492 ft 346 kts 280°
2026-04-22 18:52 9.95508 -64.02998 33792 ft 349 kts 280°
2026-04-22 18:52 9.96083 -64.05397 34135 ft 351 kts 280°
2026-04-22 18:52 9.96670 -64.07851 34409 ft 354 kts 280°
2026-04-22 18:53 9.97257 -64.10300 34731 ft 356 kts 280°
2026-04-22 18:53 9.97842 -64.12727 35298 ft 350 kts 280°
2026-04-22 18:53 9.98416 -64.15125 35589 ft 352 kts 280°
2026-04-22 18:53 9.99006 -64.17595 35872 ft 353 kts 279°
2026-04-22 18:54 9.99589 -64.20036 36099 ft 357 kts 280°
2026-04-22 18:54 10.00172 -64.22479 36266 ft 361 kts 279°
2026-04-22 18:54 10.01387 -64.27591 36457 ft 375 kts 280°
2026-04-22 18:55 10.02638 -64.32864 36615 ft 391 kts 280°
2026-04-22 18:55 10.03926 -64.38259 36799 ft 406 kts 280°
2026-04-22 18:56 10.04608 -64.41116 37001 ft 412 kts 280°
2026-04-22 18:56 10.05262 -64.43858 37261 ft 415 kts 280°
2026-04-22 18:56 10.05948 -64.46744 37491 ft 419 kts 280°
2026-04-22 18:56 10.06640 -64.49649 37633 ft 426 kts 280°
2026-04-22 18:57 10.07336 -64.52571 37875 ft 429 kts 280°
2026-04-22 18:57 10.08048 -64.55559 37941 ft 435 kts 280°
2026-04-22 18:57 10.09500 -64.61664 37940 ft 450 kts 280°
2026-04-22 18:58 10.10841 -64.67991 37936 ft 462 kts 275°
2026-04-22 18:58 10.11227 -64.74585 37933 ft 467 kts 266°
2026-04-22 18:59 10.10984 -64.81146 37929 ft 463 kts 264°
2026-04-22 18:59 10.10632 -64.87687 37920 ft 463 kts 264°
2026-04-22 19:00 10.10302 -64.94261 37916 ft 464 kts 264°
2026-04-22 19:00 10.10007 -65.00826 37909 ft 464 kts 264°
2026-04-22 19:01 10.09729 -65.07435 37904 ft 466 kts 264°
2026-04-22 19:01 10.09465 -65.14006 37900 ft 466 kts 264°
2026-04-22 19:02 10.09201 -65.20612 37894 ft 465 kts 264°
2026-04-22 19:02 10.08935 -65.27205 37895 ft 466 kts 264°
2026-04-22 19:03 10.08668 -65.33779 37899 ft 465 kts 264°
2026-04-22 19:03 10.08399 -65.40359 37915 ft 466 kts 264°
2026-04-22 19:04 10.08126 -65.46983 37927 ft 465 kts 264°
2026-04-22 19:04 10.07721 -65.53574 37938 ft 465 kts 262°
2026-04-22 19:05 10.07197 -65.60128 37945 ft 466 kts 262°
2026-04-22 19:05 10.06661 -65.66708 37955 ft 468 kts 262°
2026-04-22 19:06 10.06136 -65.73319 37963 ft 467 kts 262°
2026-04-22 19:07 10.05406 -65.83222 37966 ft 466 kts 263°
2026-04-22 19:07 10.04959 -65.89802 37962 ft 466 kts 263°
2026-04-22 19:08 10.04513 -65.96401 37957 ft 467 kts 263°
2026-04-22 19:08 10.04062 -66.03011 37961 ft 468 kts 263°
2026-04-22 19:09 10.03606 -66.09641 37975 ft 468 kts 263°
2026-04-22 19:09 10.03151 -66.16219 37995 ft 468 kts 263°
2026-04-22 19:10 10.02692 -66.22840 38008 ft 465 kts 263°
2026-04-22 19:10 10.02230 -66.29401 38025 ft 465 kts 263°
2026-04-22 19:11 10.01773 -66.35723 38035 ft 464 kts 263°
2026-04-22 19:11 10.01292 -66.42297 38038 ft 463 kts 263°
2026-04-22 19:12 10.00809 -66.48902 38043 ft 464 kts 263°
2026-04-22 19:12 10.00327 -66.55471 38042 ft 463 kts 263°
2026-04-22 19:13 9.99851 -66.61973 38035 ft 464 kts 263°
2026-04-22 19:13 9.99370 -66.68510 38033 ft 462 kts 263°
2026-04-22 19:14 9.98891 -66.75031 38025 ft 460 kts 263°
2026-04-22 19:14 9.98408 -66.81565 38018 ft 461 kts 263°
2026-04-22 19:15 9.98008 -66.86975 38015 ft 460 kts 263°
2026-04-22 19:15 9.97446 -66.94537 38005 ft 460 kts 263°
2026-04-22 19:16 9.96961 -67.01070 37999 ft 462 kts 263°
2026-04-22 19:16 9.96478 -67.07558 37992 ft 460 kts 263°
2026-04-22 19:17 9.95998 -67.14062 37979 ft 461 kts 264°
2026-04-22 19:17 9.95976 -67.20609 37969 ft 463 kts 270°
2026-04-22 19:18 9.96335 -67.27126 37971 ft 462 kts 271°
2026-04-22 19:18 9.96735 -67.33710 37974 ft 464 kts 271°
2026-04-22 19:19 9.97102 -67.40237 37978 ft 463 kts 270°
2026-04-22 19:19 9.97443 -67.46779 37975 ft 464 kts 270°
2026-04-22 19:20 9.97769 -67.53349 37990 ft 463 kts 270°
2026-04-22 19:20 9.98089 -67.59923 37998 ft 463 kts 270°
2026-04-22 19:21 9.98401 -67.66462 37996 ft 462 kts 270°
2026-04-22 19:21 9.98710 -67.72991 38005 ft 462 kts 270°
2026-04-22 19:22 9.99027 -67.79559 38008 ft 463 kts 270°
2026-04-22 19:22 9.99352 -67.86106 37995 ft 463 kts 270°
2026-04-22 19:23 9.99678 -67.92639 37867 ft 461 kts 270°
2026-04-22 19:23 9.99842 -67.95878 37574 ft 451 kts 270°
2026-04-22 19:23 10.00002 -67.99026 37156 ft 443 kts 270°
2026-04-22 19:23 10.00161 -68.02151 36610 ft 438 kts 270°
2026-04-22 19:24 10.00317 -68.05257 35994 ft 434 kts 270°
2026-04-22 19:24 10.00467 -68.08302 35344 ft 431 kts 270°
2026-04-22 19:24 10.00615 -68.11339 34656 ft 429 kts 270°
2026-04-22 19:24 10.00761 -68.14344 33953 ft 428 kts 270°
2026-04-22 19:25 10.00908 -68.17374 33240 ft 426 kts 270°
2026-04-22 19:25 10.01055 -68.20381 32705 ft 420 kts 270°
2026-04-22 19:25 10.01197 -68.23295 32257 ft 415 kts 271°
2026-04-22 19:25 10.01341 -68.26251 31745 ft 410 kts 271°
2026-04-22 19:26 10.01475 -68.29112 31231 ft 407 kts 271°
2026-04-22 19:26 10.01604 -68.31998 30717 ft 403 kts 271°
2026-04-22 19:26 10.01728 -68.34812 30188 ft 400 kts 271°
2026-04-22 19:26 10.01853 -68.37656 29664 ft 396 kts 271°
2026-04-22 19:27 10.01975 -68.40436 29162 ft 392 kts 272°
2026-04-22 19:27 10.02095 -68.43209 28644 ft 389 kts 272°
2026-04-22 19:27 10.02214 -68.45943 28129 ft 386 kts 272°
2026-04-22 19:27 10.02332 -68.48681 27619 ft 382 kts 272°
2026-04-22 19:28 10.02447 -68.51356 27120 ft 379 kts 272°
2026-04-22 19:28 10.02565 -68.54053 26612 ft 376 kts 272°
2026-04-22 19:28 10.02681 -68.56688 26112 ft 373 kts 272°
2026-04-22 19:28 10.02797 -68.59351 25601 ft 374 kts 272°
2026-04-22 19:29 10.02947 -68.62019 25168 ft 386 kts 275°
2026-04-22 19:29 10.03300 -68.64765 24730 ft 392 kts 281°
2026-04-22 19:29 10.03929 -68.67444 24124 ft 391 kts 286°
2026-04-22 19:29 10.04741 -68.70112 23539 ft 388 kts 288°
2026-04-22 19:30 10.05309 -68.71830 23183 ft 386 kts 289°
2026-04-22 19:30 10.06470 -68.75243 22503 ft 380 kts 290°
2026-04-22 19:30 10.07334 -68.77786 22004 ft 377 kts 289°
2026-04-22 19:30 10.08187 -68.80323 21506 ft 373 kts 290°
2026-04-22 19:31 10.09023 -68.82828 21012 ft 370 kts 289°
2026-04-22 19:31 10.09833 -68.85279 20530 ft 366 kts 289°
2026-04-22 19:31 10.10648 -68.87763 20058 ft 363 kts 289°
2026-04-22 19:31 10.11445 -68.90193 19576 ft 359 kts 289°
2026-04-22 19:32 10.12226 -68.92580 19118 ft 356 kts 289°
2026-04-22 19:32 10.13013 -68.94990 18694 ft 350 kts 289°
2026-04-22 19:32 10.13771 -68.97316 18346 ft 344 kts 289°
2026-04-22 19:32 10.14518 -68.99612 17924 ft 340 kts 289°
2026-04-22 19:33 10.15262 -69.01898 17471 ft 337 kts 289°
2026-04-22 19:33 10.15999 -69.04165 17022 ft 334 kts 289°
2026-04-22 19:33 10.16726 -69.06397 16567 ft 331 kts 289°
2026-04-22 19:33 10.17458 -69.08643 16109 ft 328 kts 289°
2026-04-22 19:34 10.18177 -69.10850 15636 ft 327 kts 289°
2026-04-22 19:34 10.18899 -69.13071 14967 ft 331 kts 289°
2026-04-22 19:34 10.19621 -69.15296 14417 ft 331 kts 289°
2026-04-22 19:34 10.20347 -69.17529 13929 ft 328 kts 289°
2026-04-22 19:35 10.21059 -69.19722 13476 ft 324 kts 289°
2026-04-22 19:35 10.21763 -69.21885 13013 ft 321 kts 289°
2026-04-22 19:35 10.22462 -69.24033 12562 ft 318 kts 289°
2026-04-22 19:35 10.23166 -69.26198 12114 ft 315 kts 289°
2026-04-22 19:36 10.23849 -69.28297 11675 ft 313 kts 289°
2026-04-22 19:36 10.24537 -69.30411 11197 ft 311 kts 289°
2026-04-22 19:36 10.25211 -69.32485 10758 ft 309 kts 289°
2026-04-22 19:36 10.25891 -69.34579 10376 ft 304 kts 289°
2026-04-22 19:37 10.26543 -69.36593 10196 ft 293 kts 289°
2026-04-22 19:37 10.27096 -69.38531 10085 ft 280 kts 283°
2026-04-22 19:37 10.27224 -69.40499 9926 ft 274 kts 262°
2026-04-22 19:37 10.26484 -69.42266 9671 ft 274 kts 234°
2026-04-22 19:38 10.25106 -69.43595 9321 ft 275 kts 221°
2026-04-22 19:38 10.23583 -69.44823 8976 ft 273 kts 220°
2026-04-22 19:38 10.22098 -69.46043 8647 ft 271 kts 221°
2026-04-22 19:38 10.20651 -69.47269 8323 ft 270 kts 221°
2026-04-22 19:39 10.19195 -69.48520 7996 ft 269 kts 221°
2026-04-22 19:39 10.17748 -69.49762 7679 ft 269 kts 221°
2026-04-22 19:39 10.16309 -69.50996 7351 ft 269 kts 221°
2026-04-22 19:39 10.14869 -69.52231 7038 ft 267 kts 221°
2026-04-22 19:40 10.13417 -69.53476 6697 ft 269 kts 221°
2026-04-22 19:40 10.11985 -69.54703 6479 ft 262 kts 221°
2026-04-22 19:40 10.10599 -69.55889 6405 ft 252 kts 221°
2026-04-22 19:40 10.09259 -69.57005 6340 ft 242 kts 217°
2026-04-22 19:41 10.07795 -69.57792 6270 ft 237 kts 193°
2026-04-22 19:41 10.06175 -69.57728 6160 ft 228 kts 158°
2026-04-22 19:41 10.04854 -69.56876 5911 ft 223 kts 133°
2026-04-22 19:41 10.03854 -69.55676 5664 ft 220 kts 124°
2026-04-22 19:42 10.02979 -69.54404 5453 ft 216 kts 123°
2026-04-22 19:42 10.02156 -69.53140 5387 ft 204 kts 117°
2026-04-22 19:42 10.01724 -69.51839 5319 ft 188 kts 89°
2026-04-22 19:42 10.01915 -69.50536 5023 ft 187 kts 74°
2026-04-22 19:43 10.02418 -69.47885 4354 ft 188 kts 80°
2026-04-22 19:43 10.02606 -69.46596 4076 ft 184 kts 78°
2026-04-22 19:43 10.02809 -69.45318 3798 ft 173 kts 78°
2026-04-22 19:44 10.02988 -69.44175 3562 ft 157 kts 78°
2026-04-22 19:44 10.03152 -69.43102 3340 ft 145 kts 77°
2026-04-22 19:44 10.03307 -69.42100 3114 ft 140 kts 77°
2026-04-22 19:44 10.03460 -69.41112 2893 ft 138 kts 76°
2026-04-22 19:45 10.03619 -69.40138 2687 ft 139 kts 76°
2026-04-22 19:45 10.03773 -69.39156 2478 ft 137 kts 78°
2026-04-22 19:45 10.03922 -69.38211 2454 ft 129 kts 77°
2026-04-22 19:45 10.04023 -69.37277 2144 ft 131 kts 79°
2026-04-22 19:46 10.04165 -69.36445 2061 ft 90 kts 75°
2026-04-22 19:46 10.04244 -69.36008 2056 ft 38 kts 87°
2026-04-22 19:46 10.04271 -69.35786 2053 ft 30 kts 82°
2026-04-22 19:46 10.04279 -69.35722 2051 ft 1 kts 265°
2026-04-22 19:47 10.04282 -69.35728 2051 ft 1 kts
2026-04-22 19:47 10.04298 -69.35682 2050 ft 14 kts 80°
2026-04-22 19:47 10.04313 -69.35551 2047 ft 22 kts 84°
2026-04-22 19:47 10.04363 -69.35443 2043 ft 15 kts 20°
2026-04-22 19:48 10.04470 -69.35452 2041 ft 15 kts 320°
2026-04-22 19:48 10.04494 -69.35549 2043 ft 13 kts 292°
2026-04-22 19:48 10.04561 -69.35591 2043 ft 1 kts 347°
2026-04-22 19:48 10.04562 -69.35591 2042 ft 0 kts 347°